アトラス彗星

C/2019 L3 ( ATLAS )

English version
Home page
Updated on June 26, 2022

---------------------------------------------------------------------

・ プロフィール

発見日 2019年6月10日
発見光度 18.1等
発見者 Asteroid Terrestrial-Impact Last Alert System (ATLAS) search program

・ 写真集

・ 軌道要素

Epoch 2022 Jan. 21.0 TT = JDT 2459600.5
T 2022 Jan.  9.62325 TT                                 Rudenko
q   3.5544868            (2000.0)            P               Q
z  -0.0004454      Peri.  171.61148     -0.26052692     -0.66630481
 +/-0.0000005      Node   290.78998     +0.83676376     +0.20516914
e   1.0015832      Incl.   48.36122     +0.48161410     -0.71689854
From 3858 observations 2019 June 10-2022 Feb. 2, mean residual 0".8.

・ 星図

・ 光度変化

        m1 = -2.2 + 5 logΔ + 17.0 log r

---------------------------------------------------------------------

軌道要素はM.P.E.C. 2022-C56に掲載されたものです。
星図はステラナビゲータ Ver.10 (アストロアーツ) で作成したものです。
光度グラフはComet for Windowsで作成したものです。

---------------------------------------------------------------------

Copyright(C) Seiichi Yoshida (comet@aerith.net). All rights reserved.